This demonstration page uses our WeatherBlox Daily Observations layout. Learn more.

Left ArrowRight Arrow

Hourly Observations for August 16, 2022

Temp ( °F °C ) Dew Point ( °F °C ) Humidity (%) Winds ( mph kmh ) Pressure ( in mb ) Visibility ( mi km ) Precip ( " mm )
12:53 am 00:53 Clear 75 23.9 62 16.7 64 64 SE 13 20 29.88 1012 10 16 0.00 0.00
1:53 am 01:53 Partly Cloudy 74 23.3 63 17.2 69 69 SE 8 13 29.87 1012 10 16 0.00 0.00
2:53 am 02:53 Cloudy 75 23.9 62 16.7 64 64 ESE 9 15 29.87 1012 10 16 0.00 0.00
3:53 am 03:53 Mostly Cloudy 75 23.9 62 16.7 64 64 E 5 7 29.85 1011 10 16 0.00 0.00
4:53 am 04:53 Mostly Clear 75 23.9 61 16.1 62 62 NE 6 9 29.84 1010 10 16 0.00 0.00
5:53 am 05:53 Clear 74 23.3 61 16.1 64 64 ENE 7 11 29.85 1011 10 16 0.00 0.00
6:53 am 06:53 Mostly Clear 74 23.3 61 16.1 64 64 E 9 15 29.85 1011 10 16 0.00 0.00
7:53 am 07:53 Sunny 74 23.3 63 17.2 69 69 E 10 17 29.87 1011 10 16 0.00 0.00
8:53 am 08:53 Partly Cloudy 73 22.8 65 18.3 76 76 E 15 24 29.89 1012 10 16 0.01 0.13
9:53 am 09:53 Mostly Sunny 74 23.3 65 18.3 74 74 E 14 22 29.90 1013 10 16 0.00 0.00
10:53 am 10:53 Partly Cloudy with Light Rain 72 22.2 68 20 87 87 E 9 15 29.91 1013 7 11 0.01 0.25
11:53 am 11:53 Cloudy 74 23.3 69 20.6 85 85 E 12 19 29.92 1013 10 16 0.02 0.51
12:14 pm 12:14 Mostly Cloudy 74 23.3 68 20 82 82 E 10 17 29.90 1012 10 16 0.00 0.00
12:53 pm 12:53 Mostly Cloudy 76 24.4 67 19.4 74 74 E 10 17 29.91 1013 10 16 0.00 0.00
1:07 pm 13:07 Cloudy with Light Rain 76 24.4 67 19.4 74 74 E 13 20 29.89 1012 10 16 0.01 0.13
1:37 pm 13:37 Mostly Cloudy 78 25.6 67 19.4 69 69 E 12 19 29.86 1011 10 16 0.01 0.13
1:53 pm 13:53 Mostly Cloudy 79 26.1 67 19.4 67 67 E 15 24 29.88 1012 10 16 0.01 0.13
2:53 pm 14:53 Windy with Storms Likely 78 25.6 67 19.4 69 69 SSE 23 37 29.89 1012 5 8 0.02 0.51
2:59 pm 14:59 Cloudy with Strong Thunderstorms 72 22.2 69 20.6 91 91 SSE 17 28 29.89 1012 2 3 0.03 0.76
3:23 pm 15:23 Cloudy with Nearby Thunderstorms 71 21.7 68 20 90 90 ESE 13 20 29.89 1012 2 3 0.16 4.06
3:32 pm 15:32 Cloudy with Nearby Thunderstorms 71 21.7 68 20 90 90 ESE 9 15 29.90 1013 5 8 0.18 4.57
3:40 pm 15:40 Cloudy with Rain 71 21.7 67 19.4 87 87 ESE 6 9 29.89 1012 3 4 0.22 5.59
3:48 pm 15:48 Cloudy 72 22 66 19 83 83 ESE 5 7 29.89 1012 10 16 0.22 5.59
3:53 pm 15:53 Cloudy 72 22.2 67 19.4 84 84 ESE 3 6 29.89 1012 10 16 0.22 5.59
4:29 pm 16:29 Cloudy with Rain 73 22.8 68 20 84 84 E 10 17 29.88 1012 2 3 0.11 2.79
4:38 pm 16:38 Cloudy with Nearby Thunderstorms 73 22.8 69 20.6 87 87 ESE 18 30 29.89 1012 1 2 0.17 4.32
4:46 pm 16:46 Cloudy with Nearby Thunderstorms 71 21.7 68 20 90 90 E 16 26 29.89 1012 2 3 0.19 4.83
4:53 pm 16:53 Cloudy with Nearby Thunderstorms 71 21.7 68 20 90 90 E 13 20 29.91 1013 1 2 0.28 7.11
5:01 pm 17:01 Cloudy with Strong Thunderstorms 69 20.6 68 20 96 96 NE 10 17 29.89 1012 1 1 0.12 3.05
5:07 pm 17:07 Cloudy with Thunderstorms 70 21.1 68 20 93 93 NE 8 13 29.89 1012 2 3 0.12 3.05
5:13 pm 17:13 Cloudy with Light Rain 70 21.1 68 20 93 93 ENE 8 13 29.89 1012 7 11 0.13 3.30
5:53 pm 17:53 Mostly Cloudy 73 22.8 68 20 84 84 E 13 20 29.88 1012 10 16 0.14 3.56
6:53 pm 18:53 Mostly Sunny 74 23.3 67 19.4 79 79 ESE 9 15 29.85 1011 10 16 0.00 0.00
7:53 pm 19:53 Sunny 75 23.9 68 20 79 79 ESE 8 13 29.85 1011 10 16 0.00 0.00
8:53 pm 20:53 Clear 75 23.9 69 20.6 82 82 E 7 11 29.86 1011 10 16 0.00 0.00
9:53 pm 21:53 Clear 74 23.3 69 20.6 85 85 ESE 5 7 29.87 1012 10 16 0.00 0.00
10:53 pm 22:53 Clear 74 23.3 68 20 82 82 E 3 6 29.90 1013 10 16 0.00 0.00
11:53 pm 23:53 Clear 73 22.8 69 20.6 87 87 Calm 29.91 1013 10 16 0.00 0.00

Powered by AerisWeather